Home   Weather   Vancouver   Past weeks
Flag for USA

Past Weather in Vancouver, Washington, USA — Yesterday and Last 2 Weeks

Now
60 °F

Clear.


Feels Like: 60 °F
Forecast: 77 / 56 °F
Wind: 8 mph from Northwest

Location: Vancouver - Pearson Airpark

Current Time: Jun 17, 2019 at 2:00:00 am

Latest Report: Jun 17, 2019 at 12:53 am


Visibility: 10 mi

Pressure: 30.06 "Hg

Humidity: 75%

Dew Point: 52 °F

Location of VancouverLocation

Past Weather in Vancouver — Graph

°F

Vancouver Temperature Yesterday

Maximum temperature yesterday: 78 °F (at 3:53 pm)
Minimum temperature yesterday: 54 °F (at 4:53 am)
Average temperature yesterday: 64 °F

High & Low Weather Summary for the Past Weeks

 TemperatureHumidityPressure
High95 °F (Jun 11, 4:53 pm)89% (Jun 9, 5:53 am)30.40 "Hg (Jun 9, 5:53 am)
Low46 °F (Jun 9, 4:53 am)18% (Jun 4, 1:53 pm)29.77 "Hg (Jun 12, 6:53 pm)
Average65 °F57%30.08 "Hg
* Reported Jun 1 11:53 pm — Jun 16 11:53 pm, Vancouver. Weather by CustomWeather, © 2019

Note: Actual official high and low records may vary slightly from our data, if they occured in-between our weather recording intervals... More about our weather records

Advertising

Vancouver Weather History for the Previous 24 Hours

Scroll right to see more
 ConditionsComfort  
Time TempWeatherWind HumidityBarometerVisibility
11:53 pm
Sun, Jun 16
62 °FClear.6 mph70%30.05 "Hg10 mi
10:53 pm64 °FClear.3 mph65%30.04 "Hg10 mi
9:53 pm67 °FClear.6 mph61%30.03 "Hg10 mi
8:53 pm70 °FSunny.6 mph55%30.01 "Hg10 mi
7:53 pm73 °FSunny.8 mph50%29.99 "Hg10 mi
6:53 pm77 °FSunny.10 mph47%29.98 "Hg10 mi
5:53 pm77 °FSunny.13 mph47%29.98 "Hg10 mi
4:53 pm78 °FSunny.9 mph45%29.98 "Hg10 mi
3:53 pm78 °FSunny.12 mph43%29.99 "Hg10 mi
2:53 pm76 °FSunny.8 mph47%30.01 "Hg10 mi
1:53 pm74 °FSunny.6 mph46%30.02 "Hg10 mi
12:53 pm69 °FSunny.5 mph55%30.04 "Hg10 mi
11:53 am65 °FSunny.6 mph61%30.06 "Hg10 mi
10:53 am62 °FPassing clouds.5 mph67%30.06 "Hg10 mi
10:40 am62 °FPassing clouds.3 mph67%30.07 "Hg10 mi
10:21 am61 °FPartly sunny.No wind67%30.06 "Hg10 mi
9:53 am60 °FPassing clouds.5 mph69%30.06 "Hg10 mi
9:37 am60 °FScattered clouds.5 mph69%30.07 "Hg10 mi
9:18 am58 °FPartly sunny.7 mph72%30.07 "Hg10 mi
8:53 am57 °FOvercast.3 mph74%30.07 "Hg10 mi
7:53 am56 °FOvercast.7 mph75%30.07 "Hg10 mi
6:53 am54 °FOvercast.12 mph80%30.07 "Hg10 mi
5:53 am54 °FOvercast.7 mph80%30.05 "Hg10 mi
5:02 am54 °FPassing clouds.7 mph83%30.04 "Hg10 mi
4:53 am54 °FPassing clouds.6 mph83%30.03 "Hg10 mi
3:53 am55 °FClear.6 mph80%30.02 "Hg10 mi
2:53 am56 °FClear.6 mph77%30.02 "Hg10 mi
Weather by CustomWeather, © 2019

See weather overview